Stations météo

réclame
Mon MeteoGroup
Maastricht, Pays-Bas (6380): Température de l'air & dewpoint: 12.01.2019 13:00:00 - 18.01.2019 13:00:00 (CET)Maastricht, Pays-Bas (6380): Température de l'air 5cm: 12.01.2019 13:00:00 - 18.01.2019 13:00:00 (CET)Maastricht, Pays-Bas (6380): Vitesse du vent & gusts: 12.01.2019 13:00:00 - 18.01.2019 13:00:00 (CET)Maastricht, Pays-Bas (6380): Direction du vent: 12.01.2019 13:00:00 - 18.01.2019 13:00:00 (CET)Maastricht, Pays-Bas (6380): reduced air pressure: 12.01.2019 13:00:00 - 18.01.2019 13:00:00 (CET)Maastricht, Pays-Bas (6380): visibility: 12.01.2019 13:00:00 - 18.01.2019 13:00:00 (CET)Maastricht, Pays-Bas (6380): Quantités de précipitations: 12.01.2019 13:00:00 - 18.01.2019 13:00:00 (CET)
Date & Time tt [°C] td [°C] tt 5cm [°C] ff [km/h] ff [knt] fx [km/h] fx [knt] dd ppp [hPa] vv [km] rr [mm]
18.01.2019 13:00:00 - - - - - - - - - - -
18.01.2019 12:00:00 0,4 0,1 0,9 9 5 14 8 SSW 1021,2 1,1 0,0
18.01.2019 11:00:00 0,4 -0,2 0,8 9 5 11 6 S 1021,3 3,1 0,0
18.01.2019 10:00:00 0,2 -0,3 0,3 9 5 14 8 SW 1020,8 6 0,0
18.01.2019 09:00:00 0,0 -0,6 0,1 9 5 22 12 S 1020,3 5 0,0
18.01.2019 08:00:00 -0,4 -0,6 -0,1 8 4 11 6 SSW 1019,4 1,2 0,0
18.01.2019 07:00:00 -0,4 -0,6 -0,4 8 4 14 8 SSW 1019,0 0,5 0,0
18.01.2019 06:00:00 -0,1 -0,3 -0,2 11 6 14 8 SW 1018,6 0,8 0,0
18.01.2019 05:00:00 -0,2 -0,5 -0,9 8 4 14 8 W 1018,0 5 0,0
18.01.2019 04:00:00 0,3 -0,1 -0,1 8 4 14 8 W 1017,3 4,5 0,0
18.01.2019 03:00:00 0,7 0,3 0,4 11 6 18 10 W 1016,8 6 0,2
18.01.2019 02:00:00 0,7 0,5 0,5 11 6 18 10 WSW 1016,0 3,9 0,4
18.01.2019 01:00:00 0,7 0,3 0,0 9 5 22 12 WSW 1015,5 10 0,2
18.01.2019 00:00:00 0,5 0,3 0,3 13 7 18 10 WSW 1014,8 3,6 0,6
17.01.2019 23:00:00 0,1 0,0 0,1 11 6 25 14 WSW 1014,2 6 0,6
17.01.2019 22:00:00 1,0 0,3 0,7 13 7 22 12 WSW 1013,5 10 0,0
17.01.2019 21:00:00 1,1 0,3 0,7 9 5 22 12 WNW 1012,3 10 0,0
17.01.2019 20:00:00 1,3 0,7 1,2 13 7 36 19 WNW 1010,9 10 0,2
17.01.2019 19:00:00 1,5 0,4 1,3 21 11 40 21 WSW 1009,2 7 0,2
17.01.2019 18:00:00 1,1 0,3 0,3 15 8 29 16 SW 1008,4 10 0,0
17.01.2019 17:00:00 1,8 0,6 1,6 16 9 32 18 W 1008,2 10 0,1
17.01.2019 16:00:00 2,2 0,8 2,1 13 7 36 19 W 1006,9 10 0,1
17.01.2019 15:00:00 3,1 1,8 3,2 18 10 32 18 WNW 1005,8 10 0,3
17.01.2019 14:00:00 3,7 3,0 3,6 15 8 25 14 W 1004,5 6 0,3
17.01.2019 13:00:00 3,2 2,4 3,5 15 8 43 23 WSW 1004,0 10 0,6
17.01.2019 12:00:00 4,2 3,5 4,3 18 10 36 19 WSW 1003,1 5 0,8
17.01.2019 11:00:00 4,2 3,3 4,1 22 12 47 25 WSW 1002,9 10 1,5
17.01.2019 10:00:00 4,9 3,8 4,8 26 14 40 21 SSW 1002,2 10 0,2
17.01.2019 09:00:00 4,4 3,0 4,3 22 12 32 18 SSW 1002,6 10 0,1
17.01.2019 08:00:00 4,1 2,9 3,3 18 10 25 14 SW 1002,9 10 0,0
17.01.2019 07:00:00 5,0 4,0 4,7 18 10 25 14 SW 1003,2 10 0,0
17.01.2019 06:00:00 5,2 4,1 4,9 21 11 25 14 SW 1003,3 10 0,1
17.01.2019 05:00:00 5,2 4,4 5,0 18 10 25 14 SW 1003,2 9 0,0
17.01.2019 04:00:00 5,2 4,7 5,0 11 6 25 14 WSW 1003,3 8 0,3
17.01.2019 03:00:00 4,9 4,6 4,8 18 10 29 16 SW 1003,5 4,0 1,0
17.01.2019 02:00:00 4,6 4,2 4,5 26 14 36 19 SW 1003,4 5 1,0
17.01.2019 01:00:00 4,3 3,8 4,2 31 17 40 21 SW 1003,3 3,5 0,6
17.01.2019 00:00:00 4,5 3,1 4,3 34 18 47 25 SW 1003,4 5 0,0
16.01.2019 23:00:00 5,2 1,7 5,0 35 19 43 23 SSW 1003,5 10 0,0
16.01.2019 22:00:00 5,1 1,5 4,9 29 16 36 19 SW 1004,0 10 0,0
16.01.2019 21:00:00 5,1 1,4 4,9 28 15 43 23 SW 1004,1 10 0,0
16.01.2019 20:00:00 5,0 1,1 4,8 28 15 40 21 SSW 1004,7 10 0,0
16.01.2019 19:00:00 5,1 1,3 4,8 28 15 32 18 SW 1005,6 10 0,0
16.01.2019 18:00:00 5,0 1,2 4,4 22 12 32 18 SW 1005,8 10 0,0
16.01.2019 17:00:00 5,3 1,2 4,7 24 13 32 18 SSW 1006,1 10 0,0
16.01.2019 16:00:00 5,6 1,3 5,2 26 14 36 19 SSW 1006,8 10 0,0
16.01.2019 15:00:00 5,7 1,4 5,7 26 14 43 23 SW 1007,8 10 0,0
16.01.2019 14:00:00 5,8 1,4 5,6 34 18 43 23 SW 1008,6 10 0,0
16.01.2019 13:00:00 5,6 1,2 5,5 29 16 40 21 SW 1010,1 10 0,0
16.01.2019 12:00:00 5,3 1,4 5,2 26 14 43 23 SW 1011,1 10 0,0
16.01.2019 11:00:00 5,2 1,3 5,1 28 15 36 19 SW 1012,0 10 0,0
16.01.2019 10:00:00 5,0 1,5 4,8 29 16 40 21 SSW 1012,6 10 0,0
16.01.2019 09:00:00 5,1 1,9 4,9 29 16 40 21 SSW 1012,7 10 0,0
16.01.2019 08:00:00 5,4 1,9 5,2 34 18 43 23 SSW 1012,8 10 0,0
16.01.2019 07:00:00 5,7 2,2 5,4 26 14 40 21 SW 1013,2 10 0,0
16.01.2019 06:00:00 5,8 2,6 5,5 26 14 36 19 SSW 1013,6 10 0,0
16.01.2019 05:00:00 5,9 2,8 5,5 29 16 43 23 SW 1014,3 10 0,0
16.01.2019 04:00:00 5,7 3,3 5,4 31 17 47 25 SW 1015,0 10 0,0
16.01.2019 03:00:00 5,6 3,7 5,3 31 17 40 21 SW 1015,5 10 0,0
16.01.2019 02:00:00 5,3 4,3 5,2 26 14 36 19 SW 1016,0 3,5 0,1
16.01.2019 01:00:00 5,3 4,5 5,2 29 16 40 21 SW 1016,4 6 0,1
16.01.2019 00:00:00 5,6 4,3 5,5 28 15 43 23 SW 1016,8 10 0,0
15.01.2019 23:00:00 6,0 4,2 5,7 26 14 36 19 SW 1017,3 10 0,0
15.01.2019 22:00:00 6,0 4,2 5,8 24 13 32 18 SW 1017,7 10 0,0
15.01.2019 21:00:00 6,1 3,8 5,6 21 11 32 18 WSW 1017,8 10 0,0
15.01.2019 20:00:00 6,0 3,7 5,6 21 11 29 16 SW 1018,2 10 0,0
15.01.2019 19:00:00 6,0 3,8 5,7 26 14 36 19 SW 1018,4 10 0,0
15.01.2019 18:00:00 6,2 3,8 5,9 24 13 36 19 SW 1018,5 10 0,0
15.01.2019 17:00:00 6,2 3,8 5,9 24 13 36 19 SW 1018,5 10 0,0
15.01.2019 16:00:00 5,9 4,4 5,7 21 11 32 18 WSW 1018,7 8 0,0
15.01.2019 15:00:00 6,5 3,5 6,4 21 11 40 21 WSW 1018,9 10 0,0
15.01.2019 14:00:00 6,8 3,1 6,7 21 11 40 21 WSW 1019,2 10 0,0
15.01.2019 13:00:00 6,8 2,7 7,0 21 11 40 21 WSW 1019,4 10 0,0
15.01.2019 12:00:00 6,5 2,9 6,6 22 12 36 19 WSW 1019,9 10 0,0
15.01.2019 11:00:00 6,1 3,2 6,0 22 12 32 18 SW 1020,4 10 0,0
15.01.2019 10:00:00 5,0 3,4 4,8 18 10 29 16 SW 1020,6 10 0,0
15.01.2019 09:00:00 4,4 3,2 4,0 16 9 25 14 SW 1020,5 8 0,0
15.01.2019 08:00:00 4,2 3,0 3,9 18 10 25 14 SW 1020,5 9 0,0
15.01.2019 07:00:00 3,8 2,7 3,5 21 11 25 14 SW 1020,6 9 0,0
15.01.2019 06:00:00 3,6 2,5 3,2 18 10 25 14 SW 1020,6 10 0,0
15.01.2019 05:00:00 2,9 2,1 2,3 18 10 22 12 SW 1021,5 10 0,0
15.01.2019 04:00:00 3,4 2,4 3,1 15 8 22 12 SW 1021,7 10 0,0
15.01.2019 03:00:00 3,3 2,5 3,1 13 7 18 10 WSW 1021,9 10 0,0
15.01.2019 02:00:00 2,7 2,0 2,5 9 5 14 8 SW 1021,8 10 0,0
15.01.2019 01:00:00 2,5 1,4 1,7 9 5 14 8 WSW 1021,7 10 0,0
15.01.2019 00:00:00 2,1 0,8 1,1 5 3 14 8 WSW 1021,8 10 0,0
14.01.2019 23:00:00 2,9 1,3 2,4 8 4 14 8 W 1021,5 10 0,0
14.01.2019 22:00:00 2,9 0,8 2,1 8 4 14 8 W 1021,5 10 0,0
14.01.2019 21:00:00 3,0 0,9 2,2 5 3 14 8 W 1021,3 10 0,0
14.01.2019 20:00:00 2,3 0,4 0,8 5 3 14 8 W 1020,9 10 0,0
14.01.2019 19:00:00 2,6 0,6 1,2 4 2 14 8 - 1020,2 10 0,0
14.01.2019 18:00:00 3,2 0,8 2,4 9 5 22 12 WNW 1019,6 10 0,0
14.01.2019 17:00:00 3,8 0,9 2,7 13 7 25 14 NW 1019,2 10 0,0
14.01.2019 16:00:00 4,3 2,3 4,0 15 8 32 18 NNW 1018,4 10 0,6
14.01.2019 15:00:00 5,0 2,2 5,0 11 6 36 19 WNW 1017,0 10 0,0
14.01.2019 14:00:00 4,2 1,4 4,1 29 16 47 25 NNW 1016,6 10 0,0
14.01.2019 13:00:00 6,2 2,4 6,7 16 9 32 18 NW 1015,8 10 0,0
14.01.2019 12:00:00 5,6 3,2 5,3 16 9 29 16 NNW 1015,1 10 0,0
14.01.2019 11:00:00 6,1 3,9 6,1 18 10 32 18 NW 1014,3 10 0,0
14.01.2019 10:00:00 5,6 3,4 5,3 15 8 29 16 WNW 1013,5 10 0,0
14.01.2019 09:00:00 5,8 3,8 5,4 16 9 32 18 WNW 1012,6 10 0,1
14.01.2019 08:00:00 5,9 4,1 5,5 15 8 29 16 NW 1011,6 10 0,0
14.01.2019 07:00:00 6,1 3,9 5,7 15 8 32 18 W 1010,8 10 0,0
14.01.2019 06:00:00 6,0 3,9 5,4 15 8 32 18 W 1010,4 10 0,0
14.01.2019 05:00:00 6,1 3,9 5,5 16 9 32 18 W 1010,0 10 0,0
14.01.2019 04:00:00 6,1 3,9 5,5 15 8 32 18 W 1009,5 10 0,0
14.01.2019 03:00:00 6,3 4,0 5,7 15 8 32 18 WNW 1008,8 10 0,0
14.01.2019 02:00:00 6,6 4,2 5,9 15 8 32 18 WNW 1007,9 10 0,0
14.01.2019 01:00:00 6,5 4,0 5,6 16 9 32 18 WNW 1007,3 10 0,0
14.01.2019 00:00:00 7,1 4,6 6,4 16 9 36 19 WNW 1006,7 10 0,0
13.01.2019 23:00:00 7,6 5,3 6,6 18 10 40 21 WNW 1006,3 10 0,0
13.01.2019 22:00:00 7,6 5,3 7,0 22 12 43 23 NW 1005,7 10 0,0
13.01.2019 21:00:00 8,2 6,4 7,7 18 10 43 23 WNW 1005,1 10 0,1
13.01.2019 20:00:00 8,2 6,4 7,9 24 13 54 29 WNW 1004,8 10 0,0
13.01.2019 19:00:00 8,7 7,0 8,4 22 12 50 27 W 1004,9 10 0,0
13.01.2019 18:00:00 8,5 7,3 8,3 24 13 47 25 W 1005,1 10 0,0
13.01.2019 17:00:00 8,5 7,8 8,3 22 12 43 23 W 1005,5 4,8 1,0
13.01.2019 16:00:00 8,5 8,1 8,4 21 11 43 23 W 1005,4 2,6 0,7
13.01.2019 15:00:00 8,6 8,1 8,5 21 11 36 19 W 1005,8 4,0 0,8
13.01.2019 14:00:00 8,5 8,1 8,4 18 10 40 21 W 1006,4 5 2,4
13.01.2019 13:00:00 8,3 8,0 8,2 16 9 32 18 WSW 1007,6 2,3 0,9
13.01.2019 12:00:00 8,6 7,4 8,4 18 10 32 18 WSW 1008,4 10 0,0
13.01.2019 11:00:00 8,4 7,4 8,2 18 10 36 19 WSW 1009,2 10 0,0
13.01.2019 10:00:00 8,3 7,6 8,0 21 11 32 18 W 1009,9 7 0,1
13.01.2019 09:00:00 8,1 7,7 8,0 15 8 32 18 W 1010,2 3,8 0,9
13.01.2019 08:00:00 7,8 7,6 7,6 16 9 32 18 WSW 1010,3 2,7 0,7
13.01.2019 07:00:00 7,3 7,2 7,2 18 10 32 18 WSW 1010,4 2,3 0,2
13.01.2019 06:00:00 7,0 6,8 6,9 16 9 29 16 WSW 1011,5 2,7 0,1
13.01.2019 05:00:00 6,8 6,7 6,7 16 9 29 16 WSW 1012,5 3,4 0,1
13.01.2019 04:00:00 6,6 6,4 6,5 18 10 32 18 WSW 1013,1 2,3 0,4
13.01.2019 03:00:00 6,6 6,4 6,5 16 9 29 16 WSW 1013,7 2,7 0,4
13.01.2019 02:00:00 6,6 6,4 6,5 15 8 29 16 WSW 1014,1 2,7 0,3
13.01.2019 01:00:00 6,6 6,3 6,5 15 8 25 14 WSW 1014,5 3,1 0,6
13.01.2019 00:00:00 7,0 6,0 6,7 11 6 29 16 WSW 1015,0 6 0,0
12.01.2019 23:00:00 7,0 6,1 6,8 11 6 25 14 W 1015,0 10 0,0
12.01.2019 22:00:00 7,1 6,1 6,8 15 8 32 18 W 1015,2 10 0,2
12.01.2019 21:00:00 7,1 6,1 6,8 16 9 32 18 W 1015,4 10 0,2
12.01.2019 20:00:00 7,0 6,0 6,7 16 9 32 18 W 1015,7 10 0,0
12.01.2019 19:00:00 7,1 6,2 6,8 13 7 25 14 W 1015,5 10 0,0
12.01.2019 18:00:00 7,2 6,2 6,9 15 8 29 16 W 1016,1 10 0,7
12.01.2019 17:00:00 6,8 6,5 6,6 16 9 36 19 WSW 1016,1 2,8 1,0
12.01.2019 16:00:00 6,3 6,1 6,2 22 12 36 19 WSW 1016,3 4,1 0,8
12.01.2019 15:00:00 6,1 5,8 6,0 22 12 36 19 WSW 1017,0 2,2 0,6
12.01.2019 14:00:00 5,8 5,3 5,7 22 12 36 19 WSW 1017,9 3,1 0,5
12.01.2019 13:00:00 5,8 4,6 5,8 29 16 40 21 SW 1019,3 8 0,1

tt = Température de l'air
td = dewpoint
tt 5cm = Température de l'air 5cm
ff = Vitesse du vent
fx = gusts
dd = Direction du vent
ppp = reduced air pressure
vv = visibility
rr = Quantités de précipitations

stations d'obs. à proximité